Flag for Philippines Weather past 2 weeks in Tarlac City, Philippines

Now
86 °F

Partly sunny.


Feels Like: 93 °F
Forecast: 75 / 91 °F
Wind: 7 mph from North

Location: Clarkfield Pampanga International Airport

Current Time: Sep 17, 2014 at 6:00:32 PM

Latest Report: Sep 17, 2014 at 5:00 PM


Visibility: N/A

Pressure: 29.83 "Hg

Humidity: 66%

Dew point: 73 °F

Location of Tarlac CityLocation

Historic Weather in Tarlac City — Graph

°F

Tarlac City temperature yesterday

Maximum temperature yesterday: 90 °F (at 2:00 PM)
Minimum temperature yesterday: 75 °F (at 12:00 AM)
Average temperature yesterday: 80 °F

Past Weeks' High & Low Weather Summary

 TemperatureHumidityPressure
High91 °F (Sep 17, 3:00 PM)100% (Sep 3, 5:00 PM)30.86 "Hg (Sep 3, 5:00 PM)
Low73 °F (Sep 3, 7:00 PM)55% (Sep 16, 2:00 PM)29.50 "Hg (Sep 15, 12:00 AM)
Average79 °F89%29.79 "Hg
* Reported Sep 2 5:00 PM — Sep 17 5:00 PM, Tarlac City, Weather by CustomWeather, © 2014

Note: Actual official high and low records may vary slightly from our data, if they occured in-between our weather recording intervals... More about our weather records

Advertising

Tarlac City weather history for previous 24 hours

 ConditionsComfort  
Time TempWeatherWind HumidityBarometerVisibility
5:00 PM
Sep 17
86 °FPartly sunny.7 mph66%29.83 "HgN/A
4:00 PM90 °FPartly sunny.7 mph63%29.83 "HgN/A
3:00 PM91 °FPartly sunny.9 mph56%29.80 "HgN/A
2:00 PM90 °FPartly sunny.7 mph59%29.83 "HgN/A
1:00 PM90 °FScattered clouds.8 mph59%29.86 "HgN/A
12:00 PM88 °FPartly sunny.7 mph66%29.89 "HgN/A
11:00 AM88 °FPartly sunny.6 mph62%29.92 "HgN/A
10:00 AM86 °FPartly sunny.7 mph66%29.92 "HgN/A
9:00 AM84 °FPartly sunny.7 mph70%29.92 "HgN/A
8:00 AM81 °FPartly sunny.6 mph79%29.92 "HgN/A
7:00 AM77 °FPartly sunny.3 mph89%29.89 "HgN/A
6:00 AM75 °FPartly sunny.6 mph94%29.86 "HgN/A
5:00 AM75 °FPassing clouds.6 mph94%29.86 "HgN/A
4:00 AM75 °FPassing clouds.3 mph94%29.86 "HgN/A
3:00 AM75 °FPassing clouds.2 mph94%29.89 "HgN/A
2:00 AM79 °FPassing clouds.6 mph84%29.89 "HgN/A
1:00 AM79 °FPassing clouds.6 mph79%29.89 "HgN/A
11:00 PM
Sep 16
79 °FPassing clouds.6 mph79%29.92 "HgN/A
10:00 PM79 °FPassing clouds.8 mph84%29.92 "HgN/A
9:00 PM79 °FPassing clouds.2 mph84%29.92 "HgN/A
8:00 PM79 °FPassing clouds.2 mph79%29.92 "HgN/A
7:00 PM81 °FPassing clouds.2 mph79%29.86 "HgN/A
6:00 PM82 °FPassing clouds.2 mph74%29.86 "HgN/A
Weather by CustomWeather, © 2014

See weather overviewHow to use our weather pages